Погода в Куэпосе

Коста-Рика     9°25′31″N   84°09′42″W
темп.,
°C
ветер,
м/с
пор.,
м/с
влажн.,
%
обл.,
%
осадки,
мм/ч
давл.,
гПа
погр.,
м
18 апреля, вс
вс1800:00+24св1179100 0.9 101188
03:00+24св117889 0.0 101072
06:00+24ссв227970 0.0 101181
09:00+29ю1161100 0.0 1013640
12:00+29ююз436387 0.1 10111092
15:00+28юз337351 1.9 1009867
18:00+25с0186100 7.5 1011110
21:00+24с2388100 4.2 1013170
19 апреля, пн
пн1900:00+24в2283100 4.4 1012111
03:00+24св0182100 0.0 1010120
06:00+24ссз2382100 0.0 1010119
09:00+28юз2270100 0.0 1012463
12:00+29ю4364100 0.1 10111131
15:00+29ю2265100 0.4 1009870
18:00+26вюв1179100 1.3 1010134
21:00+25всв128489 1.0 1012216
20 апреля, вт
вт2000:00+25ссв1287100 3.1 101269
03:00+24ссв1186100 1.4 101070
06:00+25всв1184100 1.6 101298
09:00+29ю116815 0.0 1013747
12:00+29ююз327097 0.8 1011840
15:00+27юз2276100 3.8 1010629
18:00+25в1285100 9.3 101164
21:00+24св2288100 4.8 1013121
21 апреля, ср
ср2100:00+24ссз1185100 5.7 1012100
03:00+24сз2285100 0.0 1011116
06:00+24зсз2285100 0.0 1011133
09:00+27ю1175100 0.0 1013450
12:00+29ююз326993 0.9 1011980
15:00+27ююз2278100 4.0 1009456
18:00+25всв118497 7.4 1010221
21:00+25в228797 1.3 101263
22 апреля, чт
чт2200:00+25в2286100 3.9 101155
03:00+24св1187100 0.4 101092
06:00+24св1186100 0.4 101166
09:00+28ююз216842 0.4 1012710
12:00+29ююз326763 1.2 1010987
15:00+27ю2279100 6.5 1009321
18:00+24всв239183 13.4 1010138
21:00+24в228798 1.9 101284